Total_Precipitation_Accumulation
1.01 1.04 0.94 0.93 0.96 1.11 1.27 1.39 1.44 1.71 1.86 1.61 1.35 1.22 1.17 1.23 1.13 1.17 1.05 0.98 0.95 1.03 1.29 1.46 1.37 1.24 1.05 0.90 0.82 0.75 0.69 0.63 0.57 0.51 0.52 0.57 0.58 0.59 0.55 0.48 0.43 0.37 0.32
1.20 1.27 1.22 1.20 1.10 1.12 1.28 1.48 1.64 2.00 2.03 1.91 1.55 1.39 1.32 1.29 1.20 1.16 1.14 1.19 1.10 1.03 1.06 1.20 1.34 1.30 1.19 1.05 0.88 0.75 0.67 0.64 0.56 0.45 0.39 0.43 0.47 0.49 0.52 0.54 0.49 0.40 0.34
1.28 1.32 1.20 1.14 1.21 1.36 1.53 1.59 1.79 2.08 1.77 1.75 1.52 1.47 1.34 1.16 1.01 0.99 1.13 1.19 1.07 1.00 1.05 1.10 1.14 1.16 1.19 1.20 1.10 0.93 0.73 0.63 0.54 0.46 0.40 0.39 0.41 0.41 0.41 0.46 0.48 0.43 0.35
1.30 1.43 1.29 1.21 1.56 1.68 1.74 1.88 2.02 2.02 1.88 1.83 1.62 1.41 1.27 1.19 0.94 0.85 0.86 0.89 0.96 0.83 0.94 1.04 1.03 1.00 1.11 1.25 1.33 1.30 1.06 0.82 0.66 0.56 0.47 0.45 0.48 0.45 0.37 0.37 0.41 0.36 0.28
1.44 1.64 1.56 1.64 1.92 1.99 1.96 1.90 2.12 2.10 1.95 1.89 1.75 1.43 1.14 1.04 0.89 0.78 0.68 0.61 0.68 0.73 0.75 0.79 0.83 0.87 1.09 1.36 1.45 1.45 1.35 1.08 0.81 0.68 0.62 0.59 0.63 0.54 0.38 0.32 0.36 0.36 0.28
1.62 1.87 1.71 1.72 1.93 2.02 1.96 1.91 1.88 1.95 1.78 1.77 1.69 1.36 1.01 0.77 0.73 0.62 0.52 0.49 0.47 0.47 0.54 0.63 0.73 0.65 0.82 1.13 1.25 1.39 1.50 1.34 1.02 0.83 0.79 0.79 0.82 0.71 0.43 0.33 0.33 0.34 0.33
1.52 1.78 1.69 1.79 1.85 1.79 1.76 1.83 1.83 1.69 1.43 1.64 1.67 1.25 0.83 0.67 0.63 0.46 0.44 0.43 0.38 0.36 0.43 0.54 0.66 0.68 0.65 0.71 0.92 1.08 1.30 1.35 1.15 0.97 0.90 0.88 0.94 0.92 0.61 0.44 0.41 0.36 0.39
1.58 1.66 1.69 1.71 1.74 1.73 1.61 1.58 1.67 1.51 1.28 1.45 1.53 1.43 0.91 0.68 0.55 0.43 0.48 0.52 0.50 0.50 0.48 0.51 0.60 0.70 0.72 0.82 0.85 0.72 0.87 1.16 1.29 1.24 1.10 0.90 0.83 0.84 0.73 0.67 0.62 0.54 0.55
1.74 1.75 1.69 1.58 1.46 1.42 1.33 1.35 1.46 1.45 1.30 1.30 1.49 1.64 1.26 0.88 0.77 0.60 0.58 0.57 0.60 0.64 0.60 0.60 0.62 0.72 0.79 0.92 1.01 0.94 0.75 0.87 1.14 1.40 1.35 1.05 0.78 0.70 0.74 0.77 0.79 0.73 0.72
1.54 1.39 1.28 1.25 1.20 1.20 1.10 1.06 1.16 1.20 1.13 1.09 1.22 1.37 1.44 1.38 1.25 0.81 0.56 0.51 0.59 0.66 0.70 0.64 0.57 0.63 0.75 0.89 1.04 1.13 0.88 0.74 0.82 1.17 1.36 1.22 0.95 0.73 0.69 0.77 0.99 0.98 0.79
1.19 1.02 0.94 0.92 0.91 0.92 0.87 0.84 0.86 0.88 0.92 0.93 1.06 1.23 1.32 1.36 1.35 1.21 0.84 0.76 0.77 0.69 0.70 0.67 0.67 0.67 0.69 0.84 1.03 1.01 1.02 0.91 0.83 0.81 0.94 1.06 1.09 0.94 0.86 1.04 1.33 1.47 1.30
0.79 0.68 0.64 0.66 0.72 0.77 0.76 0.74 0.76 0.76 0.82 0.93 0.97 1.08 1.21 1.20 1.20 1.26 1.05 0.93 0.88 0.76 0.75 0.78 0.78 0.82 0.78 0.84 0.85 1.00 0.98 0.78 0.69 0.67 0.67 0.75 0.88 0.92 0.94 1.12 1.49 1.79 1.88
0.62 0.55 0.53 0.56 0.63 0.70 0.67 0.63 0.64 0.74 0.86 0.94 0.93 1.00 1.13 1.16 1.19 1.28 1.23 1.12 1.03 0.97 0.99 0.98 0.81 0.71 0.62 0.66 0.70 0.72 0.64 0.52 0.45 0.43 0.44 0.49 0.58 0.71 0.88 1.06 1.31 1.59 1.81
0.59 0.57 0.52 0.53 0.54 0.59 0.59 0.61 0.61 0.69 0.81 0.88 0.86 0.99 1.09 1.16 1.29 1.40 1.42 1.39 1.24 1.12 1.08 1.02 0.86 0.71 0.64 0.64 0.57 0.52 0.48 0.41 0.30 0.26 0.27 0.27 0.34 0.46 0.65 0.80 0.97 1.14 1.29
0.50 0.57 0.56 0.57 0.59 0.63 0.65 0.72 0.76 0.84 0.98 1.05 1.10 1.20 1.23 1.20 1.25 1.33 1.39 1.42 1.43 1.27 1.10 1.01 0.90 0.76 0.73 0.75 0.63 0.53 0.56 0.41 0.26 0.20 0.19 0.19 0.24 0.34 0.40 0.45 0.58 0.72 0.86
0.41 0.49 0.56 0.57 0.59 0.60 0.64 0.75 0.93 1.09 1.18 1.23 1.27 1.34 1.38 1.34 1.34 1.41 1.40 1.45 1.53 1.42 1.19 1.00 0.93 0.84 0.82 0.71 0.66 0.58 0.49 0.35 0.26 0.21 0.17 0.16 0.19 0.23 0.23 0.25 0.33 0.43 0.55
0.36 0.40 0.46 0.50 0.53 0.56 0.60 0.68 0.82 1.01 1.11 1.14 1.17 1.23 1.24 1.23 1.22 1.22 1.29 1.40 1.52 1.50 1.27 1.07 1.09 1.10 1.04 0.90 0.79 0.68 0.53 0.41 0.30 0.23 0.17 0.15 0.14 0.16 0.18 0.20 0.23 0.26 0.35
0.35 0.36 0.37 0.39 0.41 0.45 0.52 0.62 0.74 0.85 0.94 0.97 0.97 0.96 0.94 0.92 0.94 0.95 1.02 1.12 1.21 1.38 1.35 1.22 1.28 1.32 1.28 1.17 1.07 0.93 0.70 0.49 0.37 0.30 0.23 0.19 0.16 0.14 0.14 0.17 0.22 0.27 0.31
0.27 0.28 0.30 0.35 0.42 0.53 0.62 0.67 0.71 0.74 0.76 0.80 0.86 0.91 0.84 0.80 0.80 0.82 0.84 0.85 0.90 1.09 1.20 1.23 1.28 1.37 1.37 1.33 1.18 1.02 0.90 0.69 0.48 0.38 0.31 0.25 0.21 0.17 0.15 0.15 0.19 0.27 0.32
0.21 0.25 0.31 0.37 0.45 0.53 0.61 0.66 0.67 0.66 0.62 0.58 0.62 0.67 0.70 0.67 0.66 0.70 0.74 0.74 0.77 0.91 1.06 1.16 1.26 1.42 1.43 1.35 1.26 1.10 1.04 0.90 0.74 0.57 0.46 0.36 0.33 0.28 0.22 0.19 0.18 0.21 0.31
0.21 0.26 0.32 0.38 0.42 0.44 0.45 0.42 0.42 0.41 0.40 0.37 0.36 0.39 0.45 0.51 0.53 0.55 0.58 0.69 0.75 0.81 0.89 0.97 1.05 1.25 1.47 1.48 1.27 1.12 1.15 1.10 0.96 0.76 0.62 0.48 0.40 0.34 0.29 0.24 0.20 0.20 0.25
0.22 0.27 0.32 0.37 0.38 0.33 0.37 0.28 0.20 0.20 0.25 0.29 0.32 0.34 0.35 0.38 0.42 0.43 0.44 0.52 0.65 0.73 0.77 0.83 0.90 1.06 1.27 1.41 1.43 1.35 1.24 1.11 1.03 0.91 0.78 0.70 0.58 0.51 0.45 0.36 0.26 0.22 0.22
0.23 0.26 0.27 0.27 0.29 0.33 0.31 0.24 0.15 0.15 0.19 0.22 0.26 0.29 0.27 0.27 0.31 0.33 0.34 0.35 0.38 0.47 0.58 0.71 0.79 0.84 0.97 1.14 1.28 1.26 1.28 1.27 1.22 1.14 1.04 1.05 0.84 0.68 0.59 0.49 0.32 0.22 0.20
0.29 0.28 0.27 0.26 0.31 0.32 0.27 0.22 0.17 0.15 0.21 0.23 0.25 0.27 0.26 0.23 0.23 0.27 0.32 0.31 0.29 0.29 0.33 0.43 0.56 0.73 0.89 1.05 1.24 1.22 1.18 1.25 1.31 1.30 1.20 1.16 1.04 0.91 0.77 0.65 0.47 0.31 0.23
0.36 0.33 0.31 0.33 0.36 0.37 0.30 0.22 0.18 0.20 0.27 0.28 0.29 0.26 0.25 0.23 0.21 0.19 0.26 0.32 0.34 0.32 0.30 0.33 0.40 0.60 0.83 0.95 1.13 1.19 1.09 1.02 0.97 0.92 0.93 1.02 1.03 0.97 0.91 0.79 0.60 0.41 0.27
0.43 0.37 0.34 0.36 0.40 0.46 0.42 0.28 0.23 0.25 0.33 0.35 0.40 0.34 0.26 0.22 0.22 0.20 0.23 0.28 0.30 0.31 0.32 0.32 0.34 0.42 0.57 0.76 0.89 1.00 1.00 0.90 0.75 0.64 0.50 0.53 0.70 0.81 0.93 0.90 0.78 0.62 0.47